,,Stat6,,Stat2,,Stat8,,Stat9,,Stat10,,Wind1,,Wind1,
time,status,PA1M_AVG,status,PR1M_SUM,status,RH1M_AVG,status,SR1M_AVG,status,TA1M_AVG,status,W1dAve1m,status,W1sAve1m,
2006-02-09, 00:00:00,VALID,919.969,VALID,0,VALID,82.0605,VALID,-0.0169808,VALID,22.0635,VALID,134,VALID,1.03729,
2006-02-09, 00:01:00,VALID,919.977,VALID,0,VALID,82.0872,VALID,0,VALID,22.0436,VALID,124,VALID,1.11559,
2006-02-09, 00:02:00,VALID,919.978,VALID,0,VALID,81.9435,VALID,0.0169808,VALID,22.0277,VALID,118,VALID,1.51719,
2006-02-09, 00:03:00,VALID,919.963,VALID,0,VALID,81.3573,VALID,0,VALID,22.0142,VALID,135,VALID,1.8125,
2006-02-09, 00:04:00,VALID,919.96,VALID,0,VALID,80.8194,VALID,0,VALID,22.0465,VALID,130,VALID,1.77976,
2006-02-09, 00:05:00,VALID,919.957,VALID,0,VALID,80.6528,VALID,0,VALID,22.1012,VALID,112,VALID,1.23801,
2006-02-09, 00:06:00,VALID,919.959,VALID,0,VALID,80.574,VALID,-0.0169808,VALID,22.1465,VALID,142,VALID,1.11086,
2006-02-09, 00:07:00,VALID,919.965,VALID,0,VALID,80.7685,VALID,-0.0339617,VALID,22.1808,VALID,135,VALID,0.9375,
2006-02-09, 00:08:00,VALID,919.963,VALID,0,VALID,81.0966,VALID,-0.0509425,VALID,22.1708,VALID,84,VALID,1.47247,
2006-02-09, 00:09:00,VALID,919.958,VALID,0,VALID,81.4692,VALID,-0.0509425,VALID,22.1673,VALID,98,VALID,0.989169,
2006-02-09, 00:10:00,VALID,919.961,VALID,0,VALID,81.5798,VALID,0,VALID,22.1158,VALID,120,VALID,1.33043,
2006-02-09, 00:11:00,VALID,919.941,VALID,0,VALID,81.7133,VALID,0,VALID,22.0565,VALID,126,VALID,1.64044,
2006-02-09, 00:12:00,VALID,919.91,VALID,0,VALID,81.9867,VALID,0,VALID,22.0347,VALID,129,VALID,1.44866,
2006-02-09, 00:13:00,VALID,919.903,VALID,0,VALID,81.7743,VALID,-0.0509425,VALID,22.0083,VALID,117,VALID,1.48398,
2006-02-09, 00:14:00,VALID,919.883,VALID,0,VALID,81.651,VALID,-0.0509425,VALID,21.9991,VALID,117,VALID,1.43025,
2006-02-09, 00:15:00,VALID,919.861,VALID,0,VALID,81.5022,VALID,0,VALID,21.9991,VALID,109,VALID,1.35972,
2006-02-09, 00:16:00,VALID,919.845,VALID,0,VALID,81.7057,VALID,0,VALID,21.9991,VALID,137,VALID,1.31559,
2006-02-09, 00:17:00,VALID,919.835,VALID,0,VALID,81.6167,VALID,-0.0339617,VALID,21.9894,VALID,134,VALID,1.44903,
2006-02-09, 00:18:00,VALID,919.823,VALID,0,VALID,81.8748,VALID,0,VALID,21.9794,VALID,122,VALID,1.46912,
2006-02-09, 00:19:00,VALID,919.826,VALID,0,VALID,82.0388,VALID,-0.0509425,VALID,21.9538,VALID,117,VALID,1.43848,
2006-02-09, 00:20:00,VALID,919.811,VALID,0,VALID,82.0032,VALID,0,VALID,21.8986,VALID,125,VALID,1.46094,
2006-02-09, 00:21:00,VALID,919.793,VALID,0,VALID,81.5277,VALID,-0.0169808,VALID,21.8859,VALID,119,VALID,1.86626,
2006-02-09, 00:22:00,VALID,919.781,VALID,0,VALID,81.5645,VALID,-0.0169808,VALID,21.915,VALID,119,VALID,1.46447,
2006-02-09, 00:23:00,VALID,919.775,VALID,0,VALID,81.7616,VALID,-0.0339617,VALID,21.901,VALID,105,VALID,1.28106,
2006-02-09, 00:24:00,VALID,919.748,VALID,0,VALID,81.679,VALID,-0.0169808,VALID,21.8916,VALID,108,VALID,1.78797,
2006-02-09, 00:25:00,VALID,919.742,VALID,0,VALID,81.5378,VALID,-0.0169808,VALID,21.9088,VALID,111,VALID,1.67637,
2006-02-09, 00:26:00,VALID,919.709,VALID,0,VALID,81.3649,VALID,-0.0169808,VALID,21.8886,VALID,87,VALID,1.22584,
2006-02-09, 00:27:00,VALID,919.683,VALID,0,VALID,81.3039,VALID,0,VALID,21.9013,VALID,124,VALID,1.19922,
2006-02-09, 00:28:00,VALID,919.667,VALID,0,VALID,81.4819,VALID,-0.0169808,VALID,21.921,VALID,117,VALID,0.447731,
2006-02-09, 00:29:00,VALID,919.655,VALID,0,VALID,81.2199,VALID,0,VALID,21.9409,VALID,142,VALID,1.15569,
2006-02-09, 00:30:00,VALID,919.64,VALID,0,VALID,81.4768,VALID,-0.0509425,VALID,21.9506,VALID,138,VALID,1.06445,
2006-02-09, 00:31:00,VALID,919.639,VALID,0,VALID,81.8138,VALID,0,VALID,21.9239,VALID,124,VALID,1.27562,
2006-02-09, 00:32:00,VALID,919.634,VALID,0,VALID,82.1202,VALID,-0.0339617,VALID,21.908,VALID,128,VALID,0.908156,
2006-02-09, 00:33:00,VALID,919.632,VALID,0,VALID,82.4763,VALID,0.0169808,VALID,21.8689,VALID,139,VALID,0.825763,
2006-02-09, 00:34:00,VALID,919.611,VALID,0,VALID,82.7077,VALID,0,VALID,21.8374,VALID,144,VALID,1.20458,
2006-02-09, 00:35:00,VALID,919.61,VALID,0,VALID,82.9557,VALID,0,VALID,21.7943,VALID,135,VALID,1.28277,
2006-02-09, 00:36:00,VALID,919.62,VALID,0,VALID,82.9519,VALID,-0.0169808,VALID,21.7501,VALID,132,VALID,1.56461,
2006-02-09, 00:37:00,VALID,919.622,VALID,0,VALID,81.9104,VALID,0.0339617,VALID,21.7305,VALID,121,VALID,2.01488,
2006-02-09, 00:38:00,VALID,919.628,VALID,0,VALID,82.325,VALID,-0.0169808,VALID,21.7884,VALID,108,VALID,1.18821,
2006-02-09, 00:39:00,VALID,919.628,VALID,0,VALID,82.5411,VALID,-0.0169808,VALID,21.7819,VALID,125,VALID,1.10556,
2006-02-09, 00:40:00,VALID,919.596,VALID,0,VALID,82.8857,VALID,-0.0169808,VALID,21.7693,VALID,133,VALID,1.43349,
2006-02-09, 00:41:00,VALID,919.588,VALID,0,VALID,83.1184,VALID,-0.0339617,VALID,21.7402,VALID,120,VALID,1.37678,
2006-02-09, 00:42:00,VALID,919.577,VALID,0,VALID,83.4669,VALID,-0.0169808,VALID,21.7178,VALID,139,VALID,1.1901,
2006-02-09, 00:43:00,VALID,919.561,VALID,0,VALID,83.6741,VALID,-0.0169808,VALID,21.689,VALID,123,VALID,1.22526,
2006-02-09, 00:44:00,VALID,919.559,VALID,0,VALID,84.0403,VALID,-0.0169808,VALID,21.6569,VALID,123,VALID,1.3718,
2006-02-09, 00:45:00,VALID,919.557,VALID,0,VALID,84.3773,VALID,-0.0509425,VALID,21.6081,VALID,136,VALID,1.31105,
2006-02-09, 00:46:00,VALID,919.55,VALID,0,VALID,84.8059,VALID,-0.0849042,VALID,21.5596,VALID,131,VALID,1.74014,
2006-02-09, 00:47:00,VALID,919.563,VALID,0,VALID,85.2446,VALID,-0.0509425,VALID,21.5176,VALID,140,VALID,1.54708,
2006-02-09, 00:48:00,VALID,919.556,VALID,0,VALID,85.5625,VALID,-0.0849042,VALID,21.4696,VALID,142,VALID,1.08832,
2006-02-09, 00:49:00,VALID,919.551,VALID,0,VALID,85.8015,VALID,-0.0849042,VALID,21.4567,VALID,139,VALID,1.63653,
2006-02-09, 00:50:00,VALID,919.536,VALID,0,VALID,85.9706,VALID,-0.0509425,VALID,21.4273,VALID,129,VALID,1.7128,
2006-02-09, 00:51:00,VALID,919.51,VALID,0,VALID,85.8511,VALID,-0.0339617,VALID,21.4376,VALID,135,VALID,1.49237,
2006-02-09, 00:52:00,VALID,919.476,VALID,0,VALID,85.799,VALID,0.0849042,VALID,21.4324,VALID,141,VALID,1.41768,
2006-02-09, 00:53:00,VALID,919.448,VALID,0,VALID,85.7748,VALID,0.0339617,VALID,21.419,VALID,132,VALID,1.25572,
2006-02-09, 00:54:00,VALID,919.43,VALID,0,VALID,85.6566,VALID,0.0679233,VALID,21.3966,VALID,136,VALID,1.3327,
2006-02-09, 00:55:00,VALID,919.411,VALID,0,VALID,85.6705,VALID,0.0509425,VALID,21.3769,VALID,112,VALID,1.97351,
2006-02-09, 00:56:00,VALID,919.411,VALID,0,VALID,85.8969,VALID,0.0679233,VALID,21.384,VALID,155,VALID,0.96804,
2006-02-09, 00:57:00,VALID,919.409,VALID,0,VALID,86.0469,VALID,0.0679233,VALID,21.371,VALID,150,VALID,1.67266,
2006-02-09, 00:58:00,VALID,919.384,VALID,0,VALID,86.0851,VALID,0.101885,VALID,21.3743,VALID,152,VALID,1.45685,
2006-02-09, 00:59:00,VALID,919.366,VALID,0,VALID,86.1118,VALID,0.0679233,VALID,21.4007,VALID,145,VALID,1.51777,
2006-02-09, 01:00:00,VALID,919.333,VALID,0,VALID,86.2758,VALID,0.0679233,VALID,21.3872,VALID,144,VALID,1.61665,
2006-02-09, 01:01:00,VALID,919.332,VALID,0,VALID,86.4602,VALID,0.0509425,VALID,21.3753,VALID,138,VALID,0.932736,
2006-02-09, 01:02:00,VALID,919.339,VALID,0,VALID,86.3966,VALID,0.0509425,VALID,21.3158,VALID,136,VALID,1.54516,
2006-02-09, 01:03:00,VALID,919.335,VALID,0,VALID,85.64,VALID,0.101885,VALID,21.2805,VALID,143,VALID,2.28166,
2006-02-09, 01:04:00,VALID,919.342,VALID,0,VALID,85.5828,VALID,0.0679233,VALID,21.3161,VALID,137,VALID,1.69132,
2006-02-09, 01:05:00,VALID,919.312,VALID,0,VALID,85.5192,VALID,0.0509425,VALID,21.3357,VALID,104,VALID,1.22514,
2006-02-09, 01:06:00,VALID,919.295,VALID,0,VALID,85.5981,VALID,0.0339617,VALID,21.319,VALID,121,VALID,1.67378,
2006-02-09, 01:07:00,VALID,919.273,VALID,0,VALID,85.8994,VALID,0.0849042,VALID,21.2897,VALID,126,VALID,2.25977,
2006-02-09, 01:08:00,VALID,919.259,VALID,0,VALID,86.0851,VALID,0.0509425,VALID,21.2608,VALID,129,VALID,1.66493,
2006-02-09, 01:09:00,VALID,919.226,VALID,0,VALID,86.2186,VALID,0.101885,VALID,21.249,VALID,139,VALID,1.85352,
2006-02-09, 01:10:00,VALID,919.219,VALID,0,VALID,86.3814,VALID,0.118866,VALID,21.2158,VALID,143,VALID,1.84666,
2006-02-09, 01:11:00,VALID,919.203,VALID,0,VALID,86.3941,VALID,0.0849042,VALID,21.2024,VALID,138,VALID,1.55233,
2006-02-09, 01:12:00,VALID,919.173,VALID,0,VALID,86.1932,VALID,0.101885,VALID,21.1932,VALID,146,VALID,1.62691,
2006-02-09, 01:13:00,VALID,919.165,VALID,0,VALID,86.3801,VALID,0.0849042,VALID,21.1902,VALID,136,VALID,1.61406,
2006-02-09, 01:14:00,VALID,919.154,VALID,0,VALID,86.5594,VALID,0.0849042,VALID,21.1803,VALID,136,VALID,1.67516,
2006-02-09, 01:15:00,VALID,919.13,VALID,0,VALID,86.3737,VALID,0.0849042,VALID,21.1506,VALID,143,VALID,1.7394,
2006-02-09, 01:16:00,VALID,919.142,VALID,0,VALID,86.4538,VALID,0.0679233,VALID,21.1418,VALID,152,VALID,1.65382,
2006-02-09, 01:17:00,VALID,919.127,VALID,0,VALID,86.5085,VALID,0.0679233,VALID,21.1156,VALID,123,VALID,1.69931,
2006-02-09, 01:18:00,VALID,919.14,VALID,0,VALID,86.7565,VALID,0.0849042,VALID,21.1159,VALID,130,VALID,1.96055,
2006-02-09, 01:19:00,VALID,919.132,VALID,0,VALID,86.904,VALID,0.0679233,VALID,21.1065,VALID,131,VALID,1.33765,
2006-02-09, 01:20:00,VALID,919.134,VALID,0,VALID,86.9536,VALID,0.101885,VALID,21.0766,VALID,128,VALID,1.7351,
2006-02-09, 01:21:00,VALID,919.109,VALID,0,VALID,86.8595,VALID,0.0679233,VALID,21.0636,VALID,130,VALID,1.58117,
2006-02-09, 01:22:00,VALID,919.099,VALID,0,VALID,86.8697,VALID,-0.0679233,VALID,21.0563,VALID,132,VALID,1.49092,
2006-02-09, 01:23:00,VALID,919.093,VALID,0,VALID,86.6649,VALID,-0.0339617,VALID,21.017,VALID,151,VALID,1.92097,
2006-02-09, 01:24:00,VALID,919.094,VALID,0,VALID,86.4755,VALID,-0.0679233,VALID,21.0307,VALID,141,VALID,1.80629,
2006-02-09, 01:25:00,VALID,919.08,VALID,0,VALID,86.3687,VALID,0,VALID,21.0396,VALID,139,VALID,1.53943,
2006-02-09, 01:26:00,VALID,919.092,VALID,0,VALID,86.3674,VALID,-0.0169808,VALID,21.0361,VALID,114,VALID,1.54967,
2006-02-09, 01:27:00,VALID,919.084,VALID,0,VALID,86.539,VALID,-0.0509425,VALID,21.0143,VALID,111,VALID,2.02988,
2006-02-09, 01:28:00,VALID,919.096,VALID,0,VALID,86.6421,VALID,-0.0339617,VALID,20.9852,VALID,112,VALID,1.46038,
2006-02-09, 01:29:00,VALID,919.108,VALID,0,VALID,86.7425,VALID,-0.0679233,VALID,20.9391,VALID,117,VALID,1.48965,
2006-02-09, 01:30:00,VALID,919.112,VALID,0,VALID,86.8264,VALID,-0.0169808,VALID,20.927,VALID,121,VALID,1.32478,
2006-02-09, 01:31:00,VALID,919.119,VALID,0,VALID,87.0617,VALID,-0.0169808,VALID,20.8952,VALID,123,VALID,2.04583,
2006-02-09, 01:32:00,VALID,919.116,VALID,0,VALID,86.8544,VALID,-0.0509425,VALID,20.8594,VALID,127,VALID,1.76711,
2006-02-09, 01:33:00,VALID,919.104,VALID,0,VALID,86.773,VALID,-0.0169808,VALID,20.8656,VALID,130,VALID,1.25446,
2006-02-09, 01:34:00,VALID,919.104,VALID,0,VALID,86.965,VALID,-0.0849042,VALID,20.8755,VALID,131,VALID,1.63709,
2006-02-09, 01:35:00,VALID,919.078,VALID,0,VALID,87.0515,VALID,-0.0509425,VALID,20.8817,VALID,143,VALID,1.95573,
2006-02-09, 01:36:00,VALID,919.07,VALID,0,VALID,87.0032,VALID,-0.0169808,VALID,20.8984,VALID,135,VALID,1.22552,
2006-02-09, 01:37:00,VALID,919.076,VALID,0,VALID,86.993,VALID,0.0509425,VALID,20.9036,VALID,122,VALID,1.02344,
2006-02-09, 01:38:00,VALID,919.07,VALID,0,VALID,86.8493,VALID,0.0339617,VALID,20.8874,VALID,125,VALID,1.58612,
2006-02-09, 01:39:00,VALID,919.067,VALID,0,VALID,86.8163,VALID,0.0509425,VALID,20.8804,VALID,119,VALID,2.05451,
2006-02-09, 01:40:00,VALID,919.058,VALID,0,VALID,86.6726,VALID,0.0679233,VALID,20.8874,VALID,106,VALID,1.32422,
2006-02-09, 01:41:00,VALID,919.046,VALID,0,VALID,86.815,VALID,0.0679233,VALID,20.8508,VALID,119,VALID,1.51744,
2006-02-09, 01:42:00,VALID,919.034,VALID,0,VALID,86.8976,VALID,0.0509425,VALID,20.8185,VALID,120,VALID,1.74512,
2006-02-09, 01:43:00,VALID,919.022,VALID,0,VALID,86.8849,VALID,0.0509425,VALID,20.8166,VALID,119,VALID,1.63986,
2006-02-09, 01:44:00,VALID,918.988,VALID,0,VALID,86.7972,VALID,0.0679233,VALID,20.7991,VALID,119,VALID,1.83085,
2006-02-09, 01:45:00,VALID,918.973,VALID,0,VALID,86.7361,VALID,0.0509425,VALID,20.8158,VALID,125,VALID,1.99149,
2006-02-09, 01:46:00,VALID,918.935,VALID,0,VALID,86.5734,VALID,0.0169808,VALID,20.8354,VALID,133,VALID,1.8899,
2006-02-09, 01:47:00,VALID,918.907,VALID,0,VALID,86.3394,VALID,0.0339617,VALID,20.8451,VALID,121,VALID,2.56659,
2006-02-09, 01:48:00,VALID,918.894,VALID,0,VALID,85.4836,VALID,0.0679233,VALID,20.8837,VALID,124,VALID,1.93532,
2006-02-09, 01:49:00,VALID,918.884,VALID,0,VALID,85.3285,VALID,0.0509425,VALID,20.9712,VALID,114,VALID,1.26979,
2006-02-09, 01:50:00,VALID,918.867,VALID,0,VALID,85.4595,VALID,0.0339617,VALID,20.9839,VALID,130,VALID,1.28398,
2006-02-09, 01:51:00,VALID,918.875,VALID,0,VALID,85.8969,VALID,0.0169808,VALID,20.9612,VALID,120,VALID,1.22291,
2006-02-09, 01:52:00,VALID,918.858,VALID,0,VALID,86.122,VALID,0.0339617,VALID,20.9106,VALID,124,VALID,1.8375,
2006-02-09, 01:53:00,VALID,918.861,VALID,0,VALID,86.492,VALID,0.0339617,VALID,20.8491,VALID,129,VALID,1.6166,
2006-02-09, 01:54:00,VALID,918.867,VALID,0,VALID,86.6497,VALID,0.0169808,VALID,20.8009,VALID,130,VALID,1.36115,
2006-02-09, 01:55:00,VALID,918.862,VALID,0,VALID,86.7082,VALID,0.0169808,VALID,20.7522,VALID,145,VALID,1.60575,
2006-02-09, 01:56:00,VALID,918.861,VALID,0,VALID,86.7908,VALID,0.0509425,VALID,20.7395,VALID,140,VALID,1.69066,
2006-02-09, 01:57:00,VALID,918.847,VALID,0,VALID,86.9396,VALID,0.0169808,VALID,20.7096,VALID,140,VALID,1.88914,
2006-02-09, 01:58:00,VALID,918.829,VALID,0,VALID,86.9294,VALID,0.0169808,VALID,20.7196,VALID,126,VALID,2.05017,
2006-02-09, 01:59:00,VALID,918.813,VALID,0,VALID,87.0172,VALID,0,VALID,20.7298,VALID,126,VALID,2.29762,
2006-02-09, 02:00:00,VALID,918.778,VALID,0,VALID,87.0477,VALID,0.0509425,VALID,20.7196,VALID,122,VALID,2.02762,
2006-02-09, 02:01:00,VALID,918.742,VALID,0,VALID,87.0858,VALID,0.0169808,VALID,20.7136,VALID,130,VALID,2.29501,
2006-02-09, 02:02:00,VALID,918.718,VALID,0,VALID,87.0388,VALID,0,VALID,20.7139,VALID,134,VALID,1.95052,
2006-02-09, 02:03:00,VALID,918.696,VALID,0,VALID,86.3356,VALID,0.0169808,VALID,20.7166,VALID,139,VALID,2.51758,
2006-02-09, 02:04:00,VALID,918.706,VALID,0,VALID,86.1003,VALID,0.0169808,VALID,20.7584,VALID,134,VALID,1.61275,
2006-02-09, 02:05:00,VALID,918.707,VALID,0,VALID,86.1321,VALID,0.0339617,VALID,20.7912,VALID,136,VALID,1.58296,
2006-02-09, 02:06:00,VALID,918.707,VALID,0,VALID,86.1766,VALID,-0.0169808,VALID,20.7882,VALID,145,VALID,1.78487,
2006-02-09, 02:07:00,VALID,918.722,VALID,0,VALID,86.314,VALID,0.0339617,VALID,20.7683,VALID,135,VALID,1.79613,
2006-02-09, 02:08:00,VALID,918.701,VALID,0,VALID,86.1741,VALID,0,VALID,20.7621,VALID,137,VALID,1.82943,
2006-02-09, 02:09:00,VALID,918.676,VALID,0,VALID,86.1296,VALID,0,VALID,20.7551,VALID,142,VALID,1.43532,
2006-02-09, 02:10:00,VALID,918.66,VALID,0,VALID,86.1957,VALID,0,VALID,20.7586,VALID,139,VALID,1.60972,
2006-02-09, 02:11:00,VALID,918.626,VALID,0,VALID,86.1576,VALID,0.0169808,VALID,20.7529,VALID,142,VALID,1.83073,
2006-02-09, 02:12:00,VALID,918.614,VALID,0,VALID,86.1105,VALID,0.0339617,VALID,20.7395,VALID,134,VALID,2.03525,
2006-02-09, 02:13:00,VALID,918.603,VALID,0,VALID,86.0736,VALID,-0.0169808,VALID,20.7462,VALID,123,VALID,1.68695,
2006-02-09, 02:14:00,VALID,918.582,VALID,0,VALID,85.7977,VALID,-0.0169808,VALID,20.7659,VALID,130,VALID,2.34336,
2006-02-09, 02:15:00,VALID,918.584,VALID,0,VALID,85.5268,VALID,0.0169808,VALID,20.788,VALID,120,VALID,2.33271,
2006-02-09, 02:16:00,VALID,918.58,VALID,0,VALID,85.1683,VALID,0,VALID,20.8206,VALID,131,VALID,2.57138,
2006-02-09, 02:17:00,VALID,918.574,VALID,0,VALID,84.7079,VALID,0.0169808,VALID,20.8688,VALID,135,VALID,2.55087,
2006-02-09, 02:18:00,VALID,918.578,VALID,0,VALID,84.8198,VALID,0,VALID,20.9367,VALID,134,VALID,2.12016,
2006-02-09, 02:19:00,VALID,918.584,VALID,0,VALID,85.008,VALID,0.0169808,VALID,20.9337,VALID,134,VALID,1.70666,
2006-02-09, 02:20:00,VALID,918.584,VALID,0,VALID,85.1441,VALID,0,VALID,20.9114,VALID,136,VALID,1.51944,
2006-02-09, 02:21:00,VALID,918.576,VALID,0,VALID,85.3094,VALID,0.0169808,VALID,20.8922,VALID,131,VALID,1.94375,
2006-02-09, 02:22:00,VALID,918.583,VALID,0,VALID,85.5065,VALID,0,VALID,20.8532,VALID,149,VALID,1.78385,
2006-02-09, 02:23:00,VALID,918.566,VALID,0,VALID,85.6489,VALID,0.0169808,VALID,20.827,VALID,139,VALID,1.2371,
2006-02-09, 02:24:00,VALID,918.564,VALID,0,VALID,85.7646,VALID,0.0339617,VALID,20.7947,VALID,136,VALID,2.20845,
2006-02-09, 02:25:00,VALID,918.565,VALID,0,VALID,85.9859,VALID,0.0339617,VALID,20.7718,VALID,132,VALID,1.45257,
2006-02-09, 02:26:00,VALID,918.566,VALID,0,VALID,86.1754,VALID,0.0169808,VALID,20.7298,VALID,140,VALID,1.95686,
2006-02-09, 02:27:00,VALID,918.562,VALID,0,VALID,86.0202,VALID,0.0169808,VALID,20.7139,VALID,138,VALID,2.34197,
2006-02-09, 02:28:00,VALID,918.558,VALID,0,VALID,86.0279,VALID,0.0169808,VALID,20.7427,VALID,142,VALID,1.61198,
2006-02-09, 02:29:00,VALID,918.537,VALID,0,VALID,85.9808,VALID,0,VALID,20.7427,VALID,148,VALID,2.81623,
2006-02-09, 02:30:00,VALID,918.54,VALID,0,VALID,86.1029,VALID,0.0169808,VALID,20.7524,VALID,150,VALID,1.91158,
2006-02-09, 02:31:00,VALID,918.538,VALID,0,VALID,86.1436,VALID,0.0509425,VALID,20.7293,VALID,139,VALID,1.71387,
2006-02-09, 02:32:00,VALID,918.533,VALID,0,VALID,86.2682,VALID,0.0169808,VALID,20.7233,VALID,142,VALID,1.58222,
2006-02-09, 02:33:00,VALID,918.512,VALID,0,VALID,86.3674,VALID,0,VALID,20.6875,VALID,143,VALID,2.08918,
2006-02-09, 02:34:00,VALID,918.484,VALID,0,VALID,86.3203,VALID,0.0169808,VALID,20.6907,VALID,135,VALID,2.24809,
2006-02-09, 02:35:00,VALID,918.469,VALID,0,VALID,86.4132,VALID,0,VALID,20.6977,VALID,141,VALID,2.28316,
2006-02-09, 02:36:00,VALID,918.433,VALID,0,VALID,86.5009,VALID,0.0169808,VALID,20.6748,VALID,132,VALID,1.86403,
2006-02-09, 02:37:00,VALID,918.419,VALID,0,VALID,86.6192,VALID,0.0509425,VALID,20.6584,VALID,136,VALID,2.15918,
2006-02-09, 02:38:00,VALID,918.398,VALID,0,VALID,86.6319,VALID,0.118866,VALID,20.635,VALID,134,VALID,1.73177,
2006-02-09, 02:39:00,VALID,918.383,VALID,0,VALID,86.6942,VALID,0.101885,VALID,20.6253,VALID,123,VALID,1.89766,
2006-02-09, 02:40:00,VALID,918.359,VALID,0,VALID,86.6967,VALID,0.0849042,VALID,20.6019,VALID,123,VALID,1.76094,
2006-02-09, 02:41:00,VALID,918.339,VALID,0,VALID,86.8786,VALID,0.0509425,VALID,20.5865,VALID,130,VALID,2.05766,
2006-02-09, 02:42:00,VALID,918.308,VALID,0,VALID,86.9917,VALID,0.0849042,VALID,20.5607,VALID,128,VALID,1.877,
2006-02-09, 02:43:00,VALID,918.289,VALID,0,VALID,87.0706,VALID,0.0849042,VALID,20.5542,VALID,114,VALID,1.93963,
2006-02-09, 02:44:00,VALID,918.287,VALID,0,VALID,87.0846,VALID,0.0679233,VALID,20.5418,VALID,112,VALID,1.99423,
2006-02-09, 02:45:00,VALID,918.282,VALID,0,VALID,87.1939,VALID,0.0509425,VALID,20.5294,VALID,102,VALID,1.84482,
2006-02-09, 02:46:00,VALID,918.281,VALID,0,VALID,87.2702,VALID,0.0509425,VALID,20.5097,VALID,119,VALID,2.15243,
2006-02-09, 02:47:00,VALID,918.283,VALID,0,VALID,87.2473,VALID,0.0509425,VALID,20.5033,VALID,126,VALID,2.28162,
2006-02-09, 02:48:00,VALID,918.277,VALID,0,VALID,87.2295,VALID,0.0679233,VALID,20.4998,VALID,119,VALID,1.9564,
2006-02-09, 02:49:00,VALID,918.295,VALID,0,VALID,87.2753,VALID,0.0509425,VALID,20.5027,VALID,123,VALID,1.99349,
2006-02-09, 02:50:00,VALID,918.294,VALID,0,VALID,87.2957,VALID,0.0509425,VALID,20.5132,VALID,114,VALID,2.12405,
2006-02-09, 02:51:00,VALID,918.291,VALID,0,VALID,87.4838,VALID,0.0679233,VALID,20.4895,VALID,114,VALID,1.77144,
2006-02-09, 02:52:00,VALID,918.28,VALID,0,VALID,87.6301,VALID,0,VALID,20.4558,VALID,121,VALID,2.48642,
2006-02-09, 02:53:00,VALID,918.249,VALID,0,VALID,87.5156,VALID,-0.0509425,VALID,20.4555,VALID,123,VALID,2.03316,
2006-02-09, 02:54:00,VALID,918.225,VALID,0,VALID,87.5182,VALID,-0.0339617,VALID,20.4625,VALID,128,VALID,1.83957,
2006-02-09, 02:55:00,VALID,918.206,VALID,0,VALID,87.4559,VALID,-0.101885,VALID,20.4561,VALID,127,VALID,2.01674,
2006-02-09, 02:56:00,VALID,918.191,VALID,0,VALID,87.4521,VALID,-0.0509425,VALID,20.4658,VALID,129,VALID,1.94513,
2006-02-09, 02:57:00,VALID,918.185,VALID,0,VALID,87.4292,VALID,-0.0509425,VALID,20.4491,VALID,131,VALID,1.79334,
2006-02-09, 02:58:00,VALID,918.159,VALID,0,VALID,87.3694,VALID,-0.0509425,VALID,20.4588,VALID,123,VALID,1.91761,
2006-02-09, 02:59:00,VALID,918.137,VALID,0,VALID,87.4393,VALID,-0.0339617,VALID,20.4593,VALID,134,VALID,1.64272,
2006-02-09, 03:00:00,VALID,918.127,VALID,0,VALID,87.3719,VALID,-0.0169808,VALID,20.4526,VALID,140,VALID,2.19245,
2006-02-09, 03:01:00,VALID,918.134,VALID,0,VALID,87.3147,VALID,-0.0339617,VALID,20.459,VALID,140,VALID,1.73152,
2006-02-09, 03:02:00,VALID,918.143,VALID,0,VALID,87.391,VALID,-0.0509425,VALID,20.4628,VALID,137,VALID,1.79368,
2006-02-09, 03:03:00,VALID,918.154,VALID,0,VALID,87.4622,VALID,-0.0339617,VALID,20.4533,VALID,130,VALID,1.92702,
2006-02-09, 03:04:00,VALID,918.159,VALID,0,VALID,87.5932,VALID,-0.0339617,VALID,20.4399,VALID,135,VALID,1.63777,
2006-02-09, 03:05:00,VALID,918.168,VALID,0,VALID,87.6809,VALID,-0.0509425,VALID,20.4272,VALID,138,VALID,2.07592,
2006-02-09, 03:06:00,VALID,918.158,VALID,0,VALID,87.6186,VALID,-0.0169808,VALID,20.4175,VALID,131,VALID,2.02511,
2006-02-09, 03:07:00,VALID,918.17,VALID,0,VALID,87.5551,VALID,0,VALID,20.4205,VALID,138,VALID,1.91619,
2006-02-09, 03:08:00,VALID,918.19,VALID,0,VALID,87.3923,VALID,-0.0169808,VALID,20.4367,VALID,136,VALID,2.16034,
2006-02-09, 03:09:00,VALID,918.191,VALID,0,VALID,87.1749,VALID,0,VALID,20.4757,VALID,126,VALID,2.04306,
2006-02-09, 03:10:00,VALID,918.194,VALID,0,VALID,87.0528,VALID,0,VALID,20.4976,VALID,119,VALID,2.24257,
2006-02-09, 03:11:00,VALID,918.179,VALID,0,VALID,86.9574,VALID,-0.0339617,VALID,20.5309,VALID,136,VALID,2.05096,
2006-02-09, 03:12:00,VALID,918.168,VALID,0,VALID,86.7692,VALID,0.0169808,VALID,20.5595,VALID,128,VALID,2.09566,
2006-02-09, 03:13:00,VALID,918.167,VALID,0,VALID,86.8544,VALID,0,VALID,20.5692,VALID,130,VALID,2.39968,
2006-02-09, 03:14:00,VALID,918.162,VALID,0,VALID,86.9447,VALID,0,VALID,20.5366,VALID,135,VALID,1.87843,
2006-02-09, 03:15:00,VALID,918.147,VALID,0,VALID,86.9994,VALID,0,VALID,20.5339,VALID,138,VALID,2.29241,
2006-02-09, 03:16:00,VALID,918.164,VALID,0,VALID,87.0324,VALID,0,VALID,20.5304,VALID,142,VALID,1.98212,
2006-02-09, 03:17:01,VALID,918.172,VALID,0,VALID,87.0401,VALID,-0.0169808,VALID,20.5304,VALID,134,VALID,2.16895,
2006-02-09, 03:18:00,VALID,918.19,VALID,0,VALID,87.063,VALID,0,VALID,20.5272,VALID,130,VALID,2.38494,
2006-02-09, 03:19:00,VALID,918.206,VALID,0,VALID,87.1723,VALID,0.0169808,VALID,20.5239,VALID,138,VALID,1.82374,
2006-02-09, 03:20:00,VALID,918.2,VALID,0,VALID,87.2702,VALID,0,VALID,20.5016,VALID,136,VALID,2.25688,
2006-02-09, 03:21:00,VALID,918.199,VALID,0,VALID,87.3135,VALID,0,VALID,20.4924,VALID,140,VALID,1.71447,
2006-02-09, 03:22:00,VALID,918.198,VALID,0,VALID,87.3796,VALID,0,VALID,20.469,VALID,140,VALID,1.7698,
2006-02-09, 03:23:01,VALID,918.208,VALID,0,VALID,87.4317,VALID,0,VALID,20.4658,VALID,151,VALID,2.02562,
2006-02-09, 03:24:00,VALID,918.218,VALID,0,VALID,87.5042,VALID,0.0169808,VALID,20.4593,VALID,144,VALID,1.62157,
2006-02-09, 03:25:00,VALID,918.195,VALID,0,VALID,87.6975,VALID,0,VALID,20.4367,VALID,142,VALID,1.24201,
2006-02-09, 03:26:00,VALID,918.176,VALID,0,VALID,87.8971,VALID,-0.0169808,VALID,20.4078,VALID,146,VALID,1.48242,
2006-02-09, 03:27:00,VALID,918.17,VALID,0,VALID,88.084,VALID,-0.0169808,VALID,20.3621,VALID,135,VALID,2.01209,
2006-02-09, 03:28:01,VALID,918.151,VALID,0,VALID,88.1527,VALID,0,VALID,20.3461,VALID,138,VALID,2.28455,
2006-02-09, 03:29:00,VALID,918.158,VALID,0,VALID,88.1514,VALID,0.0169808,VALID,20.3524,VALID,143,VALID,1.57779,
2006-02-09, 03:30:00,VALID,918.141,VALID,0,VALID,88.2061,VALID,0,VALID,20.3429,VALID,141,VALID,1.87198,
2006-02-09, 03:31:00,VALID,918.135,VALID,0,VALID,88.2773,VALID,0.0169808,VALID,20.3397,VALID,132,VALID,1.82776,
2006-02-09, 03:32:01,VALID,918.123,VALID,0,VALID,88.332,VALID,-0.0339617,VALID,20.3302,VALID,139,VALID,1.85156,
2006-02-09, 03:33:00,VALID,918.107,VALID,0,VALID,88.3778,VALID,0.0339617,VALID,20.3074,VALID,125,VALID,1.75353,
2006-02-09, 03:34:00,VALID,918.101,VALID,0,VALID,88.4325,VALID,0,VALID,20.2845,VALID,130,VALID,2.193,
2006-02-09, 03:35:01,VALID,918.091,VALID,0,VALID,88.2468,VALID,0,VALID,20.3111,VALID,137,VALID,2.25191,